This is the latest recevied weather packets stored in our database for station/object DM4WH-13. If no packets are shown the sender has not sent any weather packets the latest 10 day(s).
| Time | Temp. | Humidity | Pressure | Rain* | Wind** | Luminosity | Snow |
|---|---|---|---|---|---|---|---|
| 1777718726 | 23.89° C | 26% | 1023.9 hPa | 0 mm | 0.89 m/s, 114° | - | - |
| 1777718413 | 25° C | 26% | 1024 hPa | 0 mm | 0.45 m/s, 84° | - | - |
| 1777718126 | 25° C | 28% | 1024.1 hPa | 0 mm | 0.45 m/s, 154° | - | - |
| 1777717813 | 23.89° C | 26% | 1024.2 hPa | 0 mm | 0.45 m/s, 112° | - | - |
| 1777717538 | 25° C | 26% | 1024.2 hPa | 0 mm | 0.45 m/s, 102° | - | - |
| 1777717226 | 25° C | 28% | 1024.3 hPa | 0 mm | 0.45 m/s, 306° | - | - |
| 1777716913 | 23.89° C | 26% | 1024.3 hPa | 0 mm | 0.45 m/s, 132° | - | - |
| 1777716626 | 25° C | 29% | 1024.4 hPa | 0 mm | 0 m/s | - | - |
| 1777716314 | 23.89° C | 27% | 1024.5 hPa | 0 mm | 0.45 m/s, 126° | - | - |
| 1777716026 | 25° C | 27% | 1024.5 hPa | 0 mm | 0.45 m/s, 198° | - | - |
| 1777715714 | 25° C | 28% | 1024.6 hPa | 0 mm | 0.45 m/s, 168° | - | - |
| 1777715426 | 23.89° C | 27% | 1024.7 hPa | 0 mm | 0.45 m/s, 84° | - | - |
| 1777715113 | 23.89° C | 27% | 1024.6 hPa | 0 mm | 0.45 m/s, 268° | - | - |
| 1777714825 | 22.78° C | 27% | 1024.7 hPa | 0 mm | 0.45 m/s, 241° | - | - |
| 1777714513 | 23.89° C | 27% | 1024.9 hPa | 0 mm | 0.89 m/s, 218° | - | - |
| 1777714225 | 23.89° C | 27% | 1024.9 hPa | 0 mm | 0.89 m/s, 126° | - | - |
| 1777713912 | 23.89° C | 27% | 1024.9 hPa | 0 mm | 0.45 m/s, 165° | - | - |
| 1777713625 | 23.89° C | 28% | 1024.9 hPa | 0 mm | 0.45 m/s, 138° | - | - |
| 1777713313 | 23.89° C | 30% | 1025 hPa | 0 mm | 0.45 m/s, 190° | - | - |
| 1777713025 | 23.89° C | 31% | 1025.1 hPa | 0 mm | 0.45 m/s, 191° | - | - |
| 1777712712 | 23.89° C | 30% | 1025.1 hPa | 0 mm | 0.45 m/s, 30° | - | - |
| 1777712425 | 22.78° C | 31% | 1025.2 hPa | 0 mm | 0.45 m/s, 79° | - | - |
| 1777712112 | 22.78° C | 30% | 1025.2 hPa | 0 mm | 0.89 m/s, 107° | - | - |
| 1777711825 | 22.78° C | 31% | 1025.2 hPa | 0 mm | 0.45 m/s, 90° | - | - |
| 1777711512 | 22.78° C | 31% | 1025.2 hPa | 0 mm | 0.89 m/s, 62° | - | - |
* Rain latest hour (hover to see other rain measurements)
** Current wind speed in m/s (hover to see current wind gust speed)